Regional Weather Roundup
Issued by NWS

Home | Current Version | Previous Version | Graphics & Text | Print | Product List | Glossary Off
Versions: 1 2 3 4 5 6 7 8 9 10 11 12 13 14 15 16 17 18 19 20 21 22 23 24 25 26 27 28 29 30 31 32 33 34 35 36 37 38 39 40 41 42 43 44 45 46 47 48 49 50

000
ASUS43 KLMK 250710
RWRKY
KENTUCKY REGIONAL WEATHER ROUNDUP
NATIONAL WEATHER SERVICE LOUISVILLE KY
300 AM EDT TUE APR 25 2017

NOTE "FAIR" INDICATES FEW OR NO CLOUDS BELOW 12,000 FEET
WITH NO SIGNIFICANT WEATHER AND/OR OBSTRUCTIONS TO VISIBILITY.

KYZ001>023-026-027-061>063-070>075-250800-
WESTERN AND SOUTH CENTRAL KENTUCKY

CITY           SKY/WX    TMP DP  RH WIND       PRES   REMARKS
PADUCAH        CLEAR     60  54  80 S6        29.74F
HENDERSON      CLEAR     57  51  80 SW5       29.75S
OWENSBORO      CLEAR     58  53  84 E6        29.76S
HOPKINSVILLE   CLEAR     54  54 100 SW6       29.76S
BOWLING GREEN  CLEAR     55  55 100 CALM      29.76S
GLASGOW        PTCLDY   N/A N/A N/A CALM      29.76S FOG
$$

KYZ024-025-028>034-038-045-046-053-250800-
NORTH CENTRAL KENTUCKY

CITY           SKY/WX    TMP DP  RH WIND       PRES   REMARKS
LOUISVILLE/SDF PTCLDY    59  53  80 CALM      29.76F
LOUISVILLE/LOU CLEAR     61  54  77 E3        29.77S
FORT KNOX      CLEAR     52  52  99 CALM      29.75S
$$

KYZ035>037-039>044-047>052-055>060-089>105-250800-
NORTHEAST KENTUCKY

CITY           SKY/WX    TMP DP  RH WIND       PRES   REMARKS
LEXINGTON      CLEAR     56  51  84 E8        29.77F
COVINGTON      MOCLDY    57  52  83 E8        29.79F
FRANKFORT      CLEAR     56  50  80 E5        29.76F
$$

KYZ054-064>069-076>088-106>120-250800-
SOUTHEAST KENTUCKY

CITY           SKY/WX    TMP DP  RH WIND       PRES   REMARKS
JACKSON        PTCLDY    53  51  93 CALM      29.76F
LONDON         PTCLDY    52  49  89 CALM      29.77R
SOMERSET       PTCLDY    55  50  82 CALM      29.77S
MIDDLESBORO    MOCLDY    53  53 100 CALM      29.76F
MONTICELLO     CLOUDY    57  55  93 W6        29.77F
$$




USA.gov is the U.S. government's official web portal to all federal, state and local government web resources and services.